Year,Month,Day,Hour,Minute,Value (Times are PST for temperature in C)
2009,06,07,00,00,14.60
2009,06,07,00,01,14.60
2009,06,07,00,02,14.60
2009,06,07,00,03,14.60
2009,06,07,00,04,14.60
2009,06,07,00,05,14.70
2009,06,07,00,06,14.70
2009,06,07,00,07,14.70
2009,06,07,00,08,14.70
2009,06,07,00,09,14.70
2009,06,07,00,10,14.60
2009,06,07,00,11,14.60
2009,06,07,00,12,14.60
2009,06,07,00,13,14.60
2009,06,07,00,14,14.50
2009,06,07,00,15,14.50
2009,06,07,00,16,14.50
2009,06,07,00,17,14.50
2009,06,07,00,18,14.50
2009,06,07,00,19,14.50
2009,06,07,00,20,14.50
2009,06,07,00,21,14.50
2009,06,07,00,22,14.50
2009,06,07,00,23,14.50
2009,06,07,00,24,14.50
2009,06,07,00,25,14.50
2009,06,07,00,26,14.40
2009,06,07,00,27,14.40
2009,06,07,00,28,14.40
2009,06,07,00,29,14.40
2009,06,07,00,30,14.40
2009,06,07,00,31,14.40
2009,06,07,00,32,14.40
2009,06,07,00,33,14.40
2009,06,07,00,34,14.40
2009,06,07,00,35,14.40
2009,06,07,00,36,14.40
2009,06,07,00,37,14.40
2009,06,07,00,38,14.40
2009,06,07,00,39,14.50
2009,06,07,00,40,14.50
2009,06,07,00,41,14.50
2009,06,07,00,42,14.50
2009,06,07,00,43,14.60
2009,06,07,00,44,14.60
2009,06,07,00,45,14.60
2009,06,07,00,46,14.70
2009,06,07,00,47,14.70
2009,06,07,00,48,14.70
2009,06,07,00,49,14.70
2009,06,07,00,50,14.70
2009,06,07,00,51,14.70
2009,06,07,00,52,14.70
2009,06,07,00,53,14.70
2009,06,07,00,54,14.70
2009,06,07,00,55,14.70
2009,06,07,00,56,14.70
2009,06,07,00,57,14.70
2009,06,07,00,58,14.70
2009,06,07,00,59,14.70
2009,06,07,01,00,14.70
2009,06,07,01,01,14.70
2009,06,07,01,02,14.60
2009,06,07,01,03,14.60
2009,06,07,01,04,14.60
2009,06,07,01,05,14.60
2009,06,07,01,06,14.60
2009,06,07,01,07,14.60
2009,06,07,01,08,14.60
2009,06,07,01,09,14.60
2009,06,07,01,10,14.60
2009,06,07,01,11,14.60
2009,06,07,01,12,14.60
2009,06,07,01,13,14.60
2009,06,07,01,14,14.60
2009,06,07,01,15,14.60
2009,06,07,01,16,14.60
2009,06,07,01,17,14.60
2009,06,07,01,18,14.60
2009,06,07,01,19,14.60
2009,06,07,01,20,14.60
2009,06,07,01,21,14.60
2009,06,07,01,22,14.60
2009,06,07,01,23,14.60
2009,06,07,01,24,14.60
2009,06,07,01,25,14.60
2009,06,07,01,26,14.60
2009,06,07,01,27,14.50
2009,06,07,01,28,14.50
2009,06,07,01,29,14.50
2009,06,07,01,30,14.50
2009,06,07,01,31,14.50
2009,06,07,01,32,14.50
2009,06,07,01,33,14.50
2009,06,07,01,34,14.50
2009,06,07,01,35,14.50
2009,06,07,01,36,14.50
2009,06,07,01,37,14.50
2009,06,07,01,38,14.50
2009,06,07,01,39,14.50
2009,06,07,01,40,14.50
2009,06,07,01,41,14.50
2009,06,07,01,42,14.50
2009,06,07,01,43,14.50
2009,06,07,01,44,14.50
2009,06,07,01,45,14.50
2009,06,07,01,46,14.50
2009,06,07,01,47,14.50
2009,06,07,01,48,14.50
2009,06,07,01,49,14.50
2009,06,07,01,50,14.50
2009,06,07,01,51,14.60
2009,06,07,01,52,14.60
2009,06,07,01,53,14.60
2009,06,07,01,54,14.60
2009,06,07,01,55,14.60
2009,06,07,01,56,14.60
2009,06,07,01,57,14.60
2009,06,07,01,58,14.60
2009,06,07,01,59,14.60
2009,06,07,02,00,14.60
2009,06,07,02,01,14.70
2009,06,07,02,02,14.70
2009,06,07,02,03,14.70
2009,06,07,02,04,14.70
2009,06,07,02,05,14.70
2009,06,07,02,06,14.70
2009,06,07,02,07,14.70
2009,06,07,02,08,14.70
2009,06,07,02,09,14.70
2009,06,07,02,10,14.70
2009,06,07,02,11,14.70
2009,06,07,02,12,14.70
2009,06,07,02,13,14.70
2009,06,07,02,14,14.70
2009,06,07,02,15,14.70
2009,06,07,02,16,14.70
2009,06,07,02,17,14.70
2009,06,07,02,18,14.60
2009,06,07,02,19,14.60
2009,06,07,02,20,14.60
2009,06,07,02,21,14.50
2009,06,07,02,22,14.50
2009,06,07,02,23,14.40
2009,06,07,02,24,14.40
2009,06,07,02,25,14.30
2009,06,07,02,26,14.30
2009,06,07,02,27,14.20
2009,06,07,02,28,14.20
2009,06,07,02,29,14.20
2009,06,07,02,30,14.20
2009,06,07,02,31,14.20
2009,06,07,02,32,14.10
2009,06,07,02,33,14.10
2009,06,07,02,34,14.10
2009,06,07,02,35,14.00
2009,06,07,02,36,14.00
2009,06,07,02,37,14.00
2009,06,07,02,38,13.90
2009,06,07,02,39,13.90
2009,06,07,02,40,13.90
2009,06,07,02,41,13.80
2009,06,07,02,42,13.80
2009,06,07,02,43,13.70
2009,06,07,02,44,13.70
2009,06,07,02,45,13.70
2009,06,07,02,46,13.70
2009,06,07,02,47,13.70
2009,06,07,02,48,13.70
2009,06,07,02,49,13.70
2009,06,07,02,50,13.60
2009,06,07,02,51,13.60
2009,06,07,02,52,13.60
2009,06,07,02,53,13.60
2009,06,07,02,54,13.60
2009,06,07,02,55,13.60
2009,06,07,02,56,13.60
2009,06,07,02,57,13.60
2009,06,07,02,58,13.60
2009,06,07,02,59,13.60
2009,06,07,03,00,13.60
2009,06,07,03,01,13.60
2009,06,07,03,02,13.60
2009,06,07,03,03,13.60
2009,06,07,03,04,13.60
2009,06,07,03,05,13.60
2009,06,07,03,06,13.60
2009,06,07,03,07,13.60
2009,06,07,03,08,13.60
2009,06,07,03,09,13.60
2009,06,07,03,10,13.60
2009,06,07,03,11,13.60
2009,06,07,03,12,13.60
2009,06,07,03,13,13.50
2009,06,07,03,14,13.50
2009,06,07,03,15,13.50
2009,06,07,03,16,13.50
2009,06,07,03,17,13.40
2009,06,07,03,18,13.40
2009,06,07,03,19,13.40
2009,06,07,03,20,13.30
2009,06,07,03,21,13.30
2009,06,07,03,22,13.30
2009,06,07,03,23,13.20
2009,06,07,03,24,13.20
2009,06,07,03,25,13.10
2009,06,07,03,26,13.10
2009,06,07,03,27,13.10
2009,06,07,03,28,13.00
2009,06,07,03,29,13.00
2009,06,07,03,30,12.90
2009,06,07,03,31,12.90
2009,06,07,03,32,12.90
2009,06,07,03,33,12.80
2009,06,07,03,34,12.80
2009,06,07,03,35,12.80
2009,06,07,03,36,12.80
2009,06,07,03,37,12.80
2009,06,07,03,38,12.80
2009,06,07,03,39,12.70
2009,06,07,03,40,12.70
2009,06,07,03,41,12.70
2009,06,07,03,42,12.60
2009,06,07,03,43,12.60
2009,06,07,03,44,12.60
2009,06,07,03,45,12.60
2009,06,07,03,46,12.60
2009,06,07,03,47,12.50
2009,06,07,03,48,12.50
2009,06,07,03,49,12.50
2009,06,07,03,50,12.50
2009,06,07,03,51,12.50
2009,06,07,03,52,12.40
2009,06,07,03,53,12.40
2009,06,07,03,54,12.40
2009,06,07,03,55,12.40
2009,06,07,03,56,12.40
2009,06,07,03,57,12.40
2009,06,07,03,58,12.40
2009,06,07,03,59,12.40
2009,06,07,04,00,12.40
2009,06,07,04,01,12.40
2009,06,07,04,02,12.40
2009,06,07,04,03,12.40
2009,06,07,04,04,12.40
2009,06,07,04,05,12.40
2009,06,07,04,06,12.40
2009,06,07,04,07,12.30
2009,06,07,04,08,12.30
2009,06,07,04,09,12.30
2009,06,07,04,10,12.30
2009,06,07,04,11,12.30
2009,06,07,04,12,12.30
2009,06,07,04,13,12.30
2009,06,07,04,14,12.30
2009,06,07,04,15,12.30
2009,06,07,04,16,12.30
2009,06,07,04,17,12.30
2009,06,07,04,18,12.30
2009,06,07,04,19,12.30
2009,06,07,04,20,12.30
2009,06,07,04,21,12.40
2009,06,07,04,22,12.40
2009,06,07,04,23,12.30
2009,06,07,04,24,12.30
2009,06,07,04,25,12.30
2009,06,07,04,26,12.30
2009,06,07,04,27,12.30
2009,06,07,04,28,12.30
2009,06,07,04,29,12.30
2009,06,07,04,30,12.30
2009,06,07,04,31,12.30
2009,06,07,04,32,12.30
2009,06,07,04,33,12.20
2009,06,07,04,34,12.20
2009,06,07,04,35,12.10
2009,06,07,04,36,12.10
2009,06,07,04,37,12.10
2009,06,07,04,38,12.10
2009,06,07,04,39,12.10
2009,06,07,04,40,12.10
2009,06,07,04,41,12.10
2009,06,07,04,42,12.10
2009,06,07,04,43,12.00
2009,06,07,04,44,12.00
2009,06,07,04,45,12.00
2009,06,07,04,46,12.00
2009,06,07,04,47,11.90
2009,06,07,04,48,11.90
2009,06,07,04,49,11.90
2009,06,07,04,50,11.90
2009,06,07,04,51,11.90
2009,06,07,04,52,11.90
2009,06,07,04,53,11.80
2009,06,07,04,54,11.80
2009,06,07,04,55,11.80
2009,06,07,04,56,11.80
2009,06,07,04,57,11.80
2009,06,07,04,58,11.80
2009,06,07,04,59,11.80
2009,06,07,05,00,11.80
2009,06,07,05,01,11.80
2009,06,07,05,02,11.80
2009,06,07,05,03,11.80
2009,06,07,05,04,11.80
2009,06,07,05,05,11.80
2009,06,07,05,06,11.80
2009,06,07,05,07,11.80
2009,06,07,05,08,11.80
2009,06,07,05,09,11.80
2009,06,07,05,10,11.80
2009,06,07,05,11,11.80
2009,06,07,05,12,11.80
2009,06,07,05,13,11.80
2009,06,07,05,14,11.80
2009,06,07,05,15,11.80
2009,06,07,05,16,11.70
2009,06,07,05,17,11.70
2009,06,07,05,18,11.70
2009,06,07,05,19,11.70
2009,06,07,05,20,11.70
2009,06,07,05,21,11.60
2009,06,07,05,22,11.60
2009,06,07,05,23,11.60
2009,06,07,05,24,11.60
2009,06,07,05,25,11.60
2009,06,07,05,26,11.60
2009,06,07,05,27,11.60
2009,06,07,05,28,11.60
2009,06,07,05,29,11.50
2009,06,07,05,30,11.40
2009,06,07,05,31,11.40
2009,06,07,05,32,11.40
2009,06,07,05,33,11.40
2009,06,07,05,34,11.40
2009,06,07,05,35,11.40
2009,06,07,05,36,11.40
2009,06,07,05,37,11.40
2009,06,07,05,38,11.40
2009,06,07,05,39,11.40
2009,06,07,05,40,11.40
2009,06,07,05,41,11.40
2009,06,07,05,42,11.40
2009,06,07,05,43,11.30
2009,06,07,05,44,11.30
2009,06,07,05,45,11.30
2009,06,07,05,46,11.30
2009,06,07,05,47,11.30
2009,06,07,05,48,11.40
2009,06,07,05,49,11.40
2009,06,07,05,50,11.40
2009,06,07,05,51,11.40
2009,06,07,05,52,11.40
2009,06,07,05,53,11.40
2009,06,07,05,54,11.40
2009,06,07,05,55,11.40
2009,06,07,05,56,11.40
2009,06,07,05,57,11.40
2009,06,07,05,58,11.40
2009,06,07,05,59,11.40
2009,06,07,06,00,11.40
2009,06,07,06,01,11.40
2009,06,07,06,02,11.40
2009,06,07,06,03,11.40
2009,06,07,06,04,11.40
2009,06,07,06,05,11.40
2009,06,07,06,06,11.40
2009,06,07,06,07,11.40
2009,06,07,06,08,11.40
2009,06,07,06,09,11.40
2009,06,07,06,10,11.40
2009,06,07,06,11,11.40
2009,06,07,06,12,11.40
2009,06,07,06,13,11.40
2009,06,07,06,14,11.40
2009,06,07,06,15,11.40
2009,06,07,06,16,11.40
2009,06,07,06,17,11.40
2009,06,07,06,18,11.40
2009,06,07,06,19,11.40
2009,06,07,06,20,11.40
2009,06,07,06,21,11.40
2009,06,07,06,22,11.40
2009,06,07,06,23,11.40
2009,06,07,06,24,11.40
2009,06,07,06,25,11.50
2009,06,07,06,26,11.60
2009,06,07,06,27,11.60
2009,06,07,06,28,11.60
2009,06,07,06,29,11.60
2009,06,07,06,30,11.60
2009,06,07,06,31,11.60
2009,06,07,06,32,11.60
2009,06,07,06,33,11.60
2009,06,07,06,34,11.60
2009,06,07,06,35,11.60
2009,06,07,06,36,11.60
2009,06,07,06,37,11.60
2009,06,07,06,38,11.60
2009,06,07,06,39,11.60
2009,06,07,06,40,11.60
2009,06,07,06,41,11.60
2009,06,07,06,42,11.60
2009,06,07,06,43,11.70
2009,06,07,06,44,11.70
2009,06,07,06,45,11.70
2009,06,07,06,46,11.70
2009,06,07,06,47,11.80
2009,06,07,06,48,11.80
2009,06,07,06,49,11.80
2009,06,07,06,50,11.80
2009,06,07,06,51,11.80
2009,06,07,06,52,11.80
2009,06,07,06,53,11.90
2009,06,07,06,54,11.90
2009,06,07,06,55,12.00
2009,06,07,06,56,12.00
2009,06,07,06,57,12.00
2009,06,07,06,58,12.10
2009,06,07,06,59,12.10
2009,06,07,07,00,12.10
2009,06,07,07,01,12.20
2009,06,07,07,02,12.20
2009,06,07,07,03,12.30
2009,06,07,07,04,12.30
2009,06,07,07,05,12.30
2009,06,07,07,06,12.40
2009,06,07,07,07,12.40
2009,06,07,07,08,12.40
2009,06,07,07,09,12.40
2009,06,07,07,10,12.40
2009,06,07,07,11,12.40
2009,06,07,07,12,12.40
2009,06,07,07,13,12.40
2009,06,07,07,14,12.40
2009,06,07,07,15,12.40
2009,06,07,07,16,12.40
2009,06,07,07,17,12.40
2009,06,07,07,18,12.50
2009,06,07,07,19,12.50
2009,06,07,07,20,12.50
2009,06,07,07,21,12.60
2009,06,07,07,22,12.60
2009,06,07,07,23,12.70
2009,06,07,07,24,12.80
2009,06,07,07,25,12.80
2009,06,07,07,26,12.80
2009,06,07,07,27,12.90
2009,06,07,07,28,12.90
2009,06,07,07,29,13.00
2009,06,07,07,30,13.00
2009,06,07,07,31,13.10
2009,06,07,07,32,13.10
2009,06,07,07,33,13.10
2009,06,07,07,34,13.10
2009,06,07,07,35,13.20
2009,06,07,07,36,13.20
2009,06,07,07,37,13.30
2009,06,07,07,38,13.30
2009,06,07,07,39,13.30
2009,06,07,07,40,13.30
2009,06,07,07,41,13.30
2009,06,07,07,42,13.40
2009,06,07,07,43,13.40
2009,06,07,07,44,13.50
2009,06,07,07,45,13.50
2009,06,07,07,46,13.50
2009,06,07,07,47,13.50
2009,06,07,07,48,13.60
2009,06,07,07,49,13.60
2009,06,07,07,50,13.60
2009,06,07,07,51,13.70
2009,06,07,07,52,13.60
2009,06,07,07,53,13.60
2009,06,07,07,54,13.60
2009,06,07,07,55,13.60
2009,06,07,07,56,13.60
2009,06,07,07,57,13.60
2009,06,07,07,58,13.50
2009,06,07,07,59,13.50
2009,06,07,08,00,13.50
2009,06,07,08,01,13.50
2009,06,07,08,02,13.50
2009,06,07,08,03,13.50
2009,06,07,08,04,13.50
2009,06,07,08,05,13.50
2009,06,07,08,06,13.50
2009,06,07,08,07,13.60
2009,06,07,08,08,13.60
2009,06,07,08,09,13.60
2009,06,07,08,10,13.60
2009,06,07,08,11,13.60
2009,06,07,08,12,13.60
2009,06,07,08,13,13.70
2009,06,07,08,14,13.70
2009,06,07,08,15,13.70
2009,06,07,08,16,13.70
2009,06,07,08,17,13.80
2009,06,07,08,18,13.80
2009,06,07,08,19,13.70
2009,06,07,08,20,13.70
2009,06,07,08,21,13.70
2009,06,07,08,22,13.70
2009,06,07,08,23,13.70
2009,06,07,08,24,13.70
2009,06,07,08,25,13.70
2009,06,07,08,26,13.70
2009,06,07,08,27,13.70
2009,06,07,08,28,13.80
2009,06,07,08,29,13.80
2009,06,07,08,30,13.80
2009,06,07,08,31,13.90
2009,06,07,08,32,13.90
2009,06,07,08,33,13.90
2009,06,07,08,34,13.90
2009,06,07,08,35,14.00
2009,06,07,08,36,13.90
2009,06,07,08,37,14.00
2009,06,07,08,38,14.00
2009,06,07,08,39,14.00
2009,06,07,08,40,14.00
2009,06,07,08,41,14.00
2009,06,07,08,42,14.10
2009,06,07,08,43,14.10
2009,06,07,08,44,14.10
2009,06,07,08,45,14.00
2009,06,07,08,46,14.10
2009,06,07,08,47,14.10
2009,06,07,08,48,14.20
2009,06,07,08,49,14.20
2009,06,07,08,50,14.20
2009,06,07,08,51,14.20
2009,06,07,08,52,14.30
2009,06,07,08,53,14.30
2009,06,07,08,54,14.40
2009,06,07,08,55,14.40
2009,06,07,08,56,14.40
2009,06,07,08,57,14.30
2009,06,07,08,58,14.30
2009,06,07,08,59,14.20
2009,06,07,09,00,14.20
2009,06,07,09,01,14.20
2009,06,07,09,02,14.30
2009,06,07,09,03,14.40
2009,06,07,09,04,14.40
2009,06,07,09,05,14.40
2009,06,07,09,06,14.40
2009,06,07,09,07,14.40
2009,06,07,09,08,14.30
2009,06,07,09,09,14.30
2009,06,07,09,10,14.20
2009,06,07,09,11,14.20
2009,06,07,09,12,14.20
2009,06,07,09,13,14.20
2009,06,07,09,14,14.20
2009,06,07,09,15,14.20
2009,06,07,09,16,14.20
2009,06,07,09,17,14.20
2009,06,07,09,18,14.20
2009,06,07,09,19,14.20
2009,06,07,09,20,14.20
2009,06,07,09,21,14.20
2009,06,07,09,22,14.20
2009,06,07,09,23,14.20
2009,06,07,09,24,14.20
2009,06,07,09,25,14.30
2009,06,07,09,26,14.30
2009,06,07,09,27,14.30
2009,06,07,09,28,14.30
2009,06,07,09,29,14.40
2009,06,07,09,30,14.40
2009,06,07,09,31,14.40
2009,06,07,09,32,14.40
2009,06,07,09,33,14.50
2009,06,07,09,34,14.50
2009,06,07,09,35,14.60
2009,06,07,09,36,14.60
2009,06,07,09,37,14.60
2009,06,07,09,38,14.70
2009,06,07,09,39,14.80
2009,06,07,09,40,14.80
2009,06,07,09,41,14.90
2009,06,07,09,42,14.90
2009,06,07,09,43,14.90
2009,06,07,09,44,14.90
2009,06,07,09,45,15.00
2009,06,07,09,46,15.20
2009,06,07,09,47,15.30
2009,06,07,09,48,15.40
2009,06,07,09,49,15.40
2009,06,07,09,50,15.50
2009,06,07,09,51,15.50
2009,06,07,09,52,15.50
2009,06,07,09,53,15.40
2009,06,07,09,54,15.30
2009,06,07,09,55,15.20
2009,06,07,09,56,15.10
2009,06,07,09,57,15.10
2009,06,07,09,58,15.10
2009,06,07,09,59,15.20
2009,06,07,10,00,15.20
2009,06,07,10,01,15.20
2009,06,07,10,02,15.20
2009,06,07,10,03,15.20
2009,06,07,10,04,15.20
2009,06,07,10,05,15.10
2009,06,07,10,06,15.10
2009,06,07,10,07,15.10
2009,06,07,10,08,15.20
2009,06,07,10,09,15.40
2009,06,07,10,10,15.60
2009,06,07,10,11,15.70
2009,06,07,10,12,15.80
2009,06,07,10,13,15.80
2009,06,07,10,14,15.70
2009,06,07,10,15,15.70
2009,06,07,10,16,15.80
2009,06,07,10,17,15.80
2009,06,07,10,18,15.70
2009,06,07,10,19,15.60
2009,06,07,10,20,15.60
2009,06,07,10,21,15.50
2009,06,07,10,22,15.50
2009,06,07,10,23,15.40
2009,06,07,10,24,15.40
2009,06,07,10,25,15.50
2009,06,07,10,26,15.50
2009,06,07,10,27,15.50
2009,06,07,10,28,15.50
2009,06,07,10,29,15.50
2009,06,07,10,30,15.60
2009,06,07,10,31,15.80
2009,06,07,10,32,15.80
2009,06,07,10,33,15.90
2009,06,07,10,34,16.00
2009,06,07,10,35,16.10
2009,06,07,10,36,16.10
2009,06,07,10,37,16.10
2009,06,07,10,38,16.00
2009,06,07,10,39,15.90
2009,06,07,10,40,15.80
2009,06,07,10,41,15.90
2009,06,07,10,42,16.10
2009,06,07,10,43,16.10
2009,06,07,10,44,16.00
2009,06,07,10,45,16.00
2009,06,07,10,46,16.10
2009,06,07,10,47,16.00
2009,06,07,10,48,16.00
2009,06,07,10,49,16.10
2009,06,07,10,50,16.10
2009,06,07,10,51,16.10
2009,06,07,10,52,16.20
2009,06,07,10,53,16.10
2009,06,07,10,54,16.00
2009,06,07,10,55,15.90
2009,06,07,10,56,15.80
2009,06,07,10,57,15.80
2009,06,07,10,58,15.90
2009,06,07,10,59,16.10
2009,06,07,11,00,16.10
2009,06,07,11,01,16.10
2009,06,07,11,02,16.10
2009,06,07,11,03,16.00
2009,06,07,11,04,15.90
2009,06,07,11,05,15.80
2009,06,07,11,06,16.00
2009,06,07,11,07,16.20
2009,06,07,11,08,16.40
2009,06,07,11,09,16.40
2009,06,07,11,10,16.40
2009,06,07,11,11,16.40
2009,06,07,11,12,16.40
2009,06,07,11,13,16.40
2009,06,07,11,14,16.30
2009,06,07,11,15,16.30
2009,06,07,11,16,16.40
2009,06,07,11,17,16.30
2009,06,07,11,18,16.30
2009,06,07,11,19,16.30
2009,06,07,11,20,16.10
2009,06,07,11,21,16.00
2009,06,07,11,22,15.80
2009,06,07,11,23,15.80
2009,06,07,11,24,15.80
2009,06,07,11,25,15.90
2009,06,07,11,26,15.90
2009,06,07,11,27,15.90
2009,06,07,11,28,15.90
2009,06,07,11,29,15.90
2009,06,07,11,30,15.90
2009,06,07,11,31,15.80
2009,06,07,11,32,15.60
2009,06,07,11,33,15.60
2009,06,07,11,34,15.80
2009,06,07,11,35,16.00
2009,06,07,11,36,16.30
2009,06,07,11,37,16.30
2009,06,07,11,38,16.20
2009,06,07,11,39,16.20
2009,06,07,11,40,16.30
2009,06,07,11,41,16.30
2009,06,07,11,42,16.40
2009,06,07,11,43,16.30
2009,06,07,11,44,16.20
2009,06,07,11,45,16.10
2009,06,07,11,46,16.10
2009,06,07,11,47,16.20
2009,06,07,11,48,16.30
2009,06,07,11,49,16.40
2009,06,07,11,50,16.60
2009,06,07,11,51,16.70
2009,06,07,11,52,16.80
2009,06,07,11,53,16.80
2009,06,07,11,54,16.80
2009,06,07,11,55,16.70
2009,06,07,11,56,16.70
2009,06,07,11,57,16.70
2009,06,07,11,58,16.60
2009,06,07,11,59,16.60
2009,06,07,12,00,16.80
2009,06,07,12,01,17.10
2009,06,07,12,02,17.20
2009,06,07,12,03,17.40
2009,06,07,12,04,17.40
2009,06,07,12,05,17.30
2009,06,07,12,06,17.30
2009,06,07,12,07,17.30
2009,06,07,12,08,17.20
2009,06,07,12,09,17.10
2009,06,07,12,10,17.00
2009,06,07,12,11,16.90
2009,06,07,12,12,17.00
2009,06,07,12,13,17.20
2009,06,07,12,14,17.20
2009,06,07,12,15,17.10
2009,06,07,12,16,17.10
2009,06,07,12,17,17.10
2009,06,07,12,18,17.00
2009,06,07,12,19,17.00
2009,06,07,12,20,17.00
2009,06,07,12,21,16.90
2009,06,07,12,22,16.90
2009,06,07,12,23,17.00
2009,06,07,12,24,17.00
2009,06,07,12,25,17.20
2009,06,07,12,26,17.30
2009,06,07,12,27,17.50
2009,06,07,12,28,17.50
2009,06,07,12,29,17.40
2009,06,07,12,30,17.40
2009,06,07,12,31,17.40
2009,06,07,12,32,17.40
2009,06,07,12,33,17.50
2009,06,07,12,34,17.30
2009,06,07,12,35,17.20
2009,06,07,12,36,17.00
2009,06,07,12,37,17.00
2009,06,07,12,38,17.00
2009,06,07,12,39,17.00
2009,06,07,12,40,17.00
2009,06,07,12,41,17.00
2009,06,07,12,42,16.90
2009,06,07,12,43,16.70
2009,06,07,12,44,16.70
2009,06,07,12,45,16.70
2009,06,07,12,46,16.70
2009,06,07,12,47,16.70
2009,06,07,12,48,16.70
2009,06,07,12,49,16.70
2009,06,07,12,50,16.70
2009,06,07,12,51,16.70
2009,06,07,12,52,16.80
2009,06,07,12,53,17.00
2009,06,07,12,54,17.00
2009,06,07,12,55,17.10
2009,06,07,12,56,17.10
2009,06,07,12,57,17.30
2009,06,07,12,58,17.30
2009,06,07,12,59,17.20
2009,06,07,13,00,17.10
2009,06,07,13,01,17.10
2009,06,07,13,02,17.00
2009,06,07,13,03,16.90
2009,06,07,13,04,17.00
2009,06,07,13,05,17.00
2009,06,07,13,06,17.20
2009,06,07,13,07,17.30
2009,06,07,13,08,17.30
2009,06,07,13,09,17.30
2009,06,07,13,10,17.50
2009,06,07,13,11,17.50
2009,06,07,13,12,17.50
2009,06,07,13,13,17.70
2009,06,07,13,14,17.70
2009,06,07,13,15,17.70
2009,06,07,13,16,17.50
2009,06,07,13,17,17.40
2009,06,07,13,18,17.40
2009,06,07,13,19,17.50
2009,06,07,13,20,17.50
2009,06,07,13,21,17.40
2009,06,07,13,22,17.30
2009,06,07,13,23,17.30
2009,06,07,13,24,17.30
2009,06,07,13,25,17.30
2009,06,07,13,26,17.30
2009,06,07,13,27,17.30
2009,06,07,13,28,17.30
2009,06,07,13,29,17.30
2009,06,07,13,30,17.20
2009,06,07,13,31,17.10
2009,06,07,13,32,17.10
2009,06,07,13,33,17.10
2009,06,07,13,34,17.10
2009,06,07,13,35,17.20
2009,06,07,13,36,17.20
2009,06,07,13,37,17.20
2009,06,07,13,38,17.20
2009,06,07,13,39,17.20
2009,06,07,13,40,17.30
2009,06,07,13,41,17.30
2009,06,07,13,42,17.20
2009,06,07,13,43,17.20
2009,06,07,13,44,17.20
2009,06,07,13,45,17.10
2009,06,07,13,46,17.10
2009,06,07,13,47,17.20
2009,06,07,13,48,17.20
2009,06,07,13,49,17.30
2009,06,07,13,50,17.30
2009,06,07,13,51,17.40
2009,06,07,13,52,17.50
2009,06,07,13,53,17.60
2009,06,07,13,54,17.40
2009,06,07,13,55,17.20
2009,06,07,13,56,17.10
2009,06,07,13,57,17.10
2009,06,07,13,58,17.20
2009,06,07,13,59,17.20
2009,06,07,14,00,17.20
2009,06,07,14,01,17.30
2009,06,07,14,02,17.30
2009,06,07,14,03,17.30
2009,06,07,14,04,17.30
2009,06,07,14,05,17.30
2009,06,07,14,06,17.30
2009,06,07,14,07,17.40
2009,06,07,14,08,17.50
2009,06,07,14,09,17.70
2009,06,07,14,10,17.70
2009,06,07,14,11,17.70
2009,06,07,14,12,17.80
2009,06,07,14,13,17.80
2009,06,07,14,14,17.80
2009,06,07,14,15,17.70
2009,06,07,14,16,17.60
2009,06,07,14,17,17.70
2009,06,07,14,18,17.60
2009,06,07,14,19,17.60
2009,06,07,14,20,17.60
2009,06,07,14,21,17.50
2009,06,07,14,22,17.50
2009,06,07,14,23,17.50
2009,06,07,14,24,17.40
2009,06,07,14,25,17.50
2009,06,07,14,26,17.40
2009,06,07,14,27,17.40
2009,06,07,14,28,17.50
2009,06,07,14,29,17.90
2009,06,07,14,30,18.00
2009,06,07,14,31,17.90
2009,06,07,14,32,18.10
2009,06,07,14,33,18.30
2009,06,07,14,34,18.30
2009,06,07,14,35,18.30
2009,06,07,14,36,18.20
2009,06,07,14,37,18.20
2009,06,07,14,38,18.00
2009,06,07,14,39,17.90
2009,06,07,14,40,17.90
2009,06,07,14,41,17.80
2009,06,07,14,42,17.80
2009,06,07,14,43,17.90
2009,06,07,14,44,17.90
2009,06,07,14,45,17.90
2009,06,07,14,46,17.90
2009,06,07,14,47,18.00
2009,06,07,14,48,18.10
2009,06,07,14,49,18.10
2009,06,07,14,50,18.20
2009,06,07,14,51,18.10
2009,06,07,14,52,18.10
2009,06,07,14,53,18.10
2009,06,07,14,54,18.00
2009,06,07,14,55,17.90
2009,06,07,14,56,17.90
2009,06,07,14,57,18.00
2009,06,07,14,58,18.00
2009,06,07,14,59,17.80
2009,06,07,15,00,17.50
2009,06,07,15,01,17.20
2009,06,07,15,02,17.00
2009,06,07,15,03,16.80
2009,06,07,15,04,16.90
2009,06,07,15,05,16.90
2009,06,07,15,06,16.90
2009,06,07,15,07,16.90
2009,06,07,15,08,17.00
2009,06,07,15,09,17.10
2009,06,07,15,10,17.10
2009,06,07,15,11,17.00
2009,06,07,15,12,17.00
2009,06,07,15,13,17.20
2009,06,07,15,14,17.20
2009,06,07,15,15,17.20
2009,06,07,15,16,17.20
2009,06,07,15,17,17.10
2009,06,07,15,18,17.20
2009,06,07,15,19,17.30
2009,06,07,15,20,17.20
2009,06,07,15,21,17.30
2009,06,07,15,22,17.30
2009,06,07,15,23,17.30
2009,06,07,15,24,17.00
2009,06,07,15,25,16.90
2009,06,07,15,26,16.80
2009,06,07,15,27,16.80
2009,06,07,15,28,16.70
2009,06,07,15,29,16.70
2009,06,07,15,30,16.60
2009,06,07,15,31,16.70
2009,06,07,15,32,16.70
2009,06,07,15,33,16.70
2009,06,07,15,34,16.70
2009,06,07,15,35,16.70
2009,06,07,15,36,16.70
2009,06,07,15,37,16.60
2009,06,07,15,38,16.60
2009,06,07,15,39,16.70
2009,06,07,15,40,16.70
2009,06,07,15,41,16.70
2009,06,07,15,42,16.70
2009,06,07,15,43,16.80
2009,06,07,15,44,16.90
2009,06,07,15,45,17.00
2009,06,07,15,46,17.20
2009,06,07,15,47,17.20
2009,06,07,15,48,17.20
2009,06,07,15,49,17.20
2009,06,07,15,50,17.20
2009,06,07,15,51,17.20
2009,06,07,15,52,17.20
2009,06,07,15,53,17.20
2009,06,07,15,54,17.30
2009,06,07,15,55,17.30
2009,06,07,15,56,17.30
2009,06,07,15,57,17.30
2009,06,07,15,58,17.20
2009,06,07,15,59,17.20
2009,06,07,16,00,17.10
2009,06,07,16,01,17.00
2009,06,07,16,02,16.90
2009,06,07,16,03,16.90
2009,06,07,16,04,16.80
2009,06,07,16,05,16.80
2009,06,07,16,06,16.90
2009,06,07,16,07,16.90
2009,06,07,16,08,17.00
2009,06,07,16,09,17.10
2009,06,07,16,10,17.20
2009,06,07,16,11,17.10
2009,06,07,16,12,17.00
2009,06,07,16,13,17.00
2009,06,07,16,14,17.20
2009,06,07,16,15,17.20
2009,06,07,16,16,17.30
2009,06,07,16,17,17.30
2009,06,07,16,18,17.30
2009,06,07,16,19,17.30
2009,06,07,16,20,17.30
2009,06,07,16,21,17.30
2009,06,07,16,22,17.30
2009,06,07,16,23,17.30
2009,06,07,16,24,17.30
2009,06,07,16,25,17.40
2009,06,07,16,26,17.40
2009,06,07,16,27,17.30
2009,06,07,16,28,17.20
2009,06,07,16,29,17.20
2009,06,07,16,30,17.10
2009,06,07,16,31,17.00
2009,06,07,16,32,17.00
2009,06,07,16,33,17.10
2009,06,07,16,34,17.20
2009,06,07,16,35,17.30
2009,06,07,16,36,17.30
2009,06,07,16,37,17.30
2009,06,07,16,38,17.30
2009,06,07,16,39,17.40
2009,06,07,16,40,17.40
2009,06,07,16,41,17.50
2009,06,07,16,42,17.50
2009,06,07,16,43,17.40
2009,06,07,16,44,17.30
2009,06,07,16,45,17.30
2009,06,07,16,46,17.30
2009,06,07,16,47,17.20
2009,06,07,16,48,17.10
2009,06,07,16,49,17.10
2009,06,07,16,50,17.10
2009,06,07,16,51,17.10
2009,06,07,16,52,17.20
2009,06,07,16,53,17.20
2009,06,07,16,54,17.20
2009,06,07,16,55,17.20
2009,06,07,16,56,17.20
2009,06,07,16,57,17.30
2009,06,07,16,58,17.30
2009,06,07,16,59,17.50
2009,06,07,17,00,17.50
2009,06,07,17,01,17.40
2009,06,07,17,02,17.40
2009,06,07,17,03,17.40
2009,06,07,17,04,17.40
2009,06,07,17,05,17.40
2009,06,07,17,06,17.30
2009,06,07,17,07,17.30
2009,06,07,17,08,17.20
2009,06,07,17,09,17.20
2009,06,07,17,10,17.20
2009,06,07,17,11,17.30
2009,06,07,17,12,17.30
2009,06,07,17,13,17.30
2009,06,07,17,14,17.50
2009,06,07,17,15,17.50
2009,06,07,17,16,17.40
2009,06,07,17,17,17.40
2009,06,07,17,18,17.50
2009,06,07,17,19,17.50